| time (UTC) | temp C | wind direction | speed KPH | gust KPH | rain 1hr cm | rain 24hr cm | rain mn cm | humidity % | barometer mb |
| 20260502223525 | 18 | 237 | 3.2 | 9.7 | 0.00 | 0.05 | 0.05 | 34 | 1008.9 |
| 20260502223521 | 18 | 245 | 3.2 | 9.7 | 0.00 | 0.05 | 0.05 | 34 | 1008.8 |
| 20260502222518 | 18 | 252 | 3.2 | 11.3 | 0.00 | 0.05 | 0.05 | 34 | 1008.9 |
| 20260502222016 | 18 | 271 | 4.8 | 12.9 | 0.00 | 0.05 | 0.05 | 34 | 1009.0 |
| 20260502221514 | 18 | 271 | 3.2 | 12.9 | 0.00 | 0.05 | 0.05 | 34 | 1009.0 |
| 20260502221014 | 18 | 234 | 1.6 | 9.7 | 0.00 | 0.05 | 0.05 | 35 | 1009.0 |
| 20260502220514 | 18 | 263 | 1.6 | 9.7 | 0.00 | 0.05 | 0.05 | 35 | 1009.1 |
| 20260502220014 | 18 | 262 | 3.2 | 12.9 | 0.00 | 0.05 | 0.05 | 34 | 1009.2 |
| 20260502215511 | 18 | 267 | 4.8 | 14.5 | 0.00 | 0.05 | 0.05 | 34 | 1009.3 |
| 20260502215015 | 18 | 256 | 3.2 | 9.7 | 0.00 | 0.05 | 0.05 | 34 | 1009.5 |
| 20260502215011 | 18 | 274 | 4.8 | 14.5 | 0.00 | 0.05 | 0.05 | 33 | 1009.5 |
| 20260502214010 | 18 | 243 | 3.2 | 8.0 | 0.00 | 0.05 | 0.05 | 34 | 1009.5 |
| 20260502213514 | 18 | 266 | 6.4 | 16.1 | 0.00 | 0.05 | 0.05 | 33 | 1009.6 |
| 20260502213509 | 18 | 246 | 4.8 | 14.5 | 0.00 | 0.05 | 0.05 | 34 | 1009.6 |
| 20260502212510 | 19 | 230 | 6.4 | 16.1 | 0.00 | 0.05 | 0.05 | 33 | 1009.7 |
| 20260502212011 | 19 | 252 | 6.4 | 14.5 | 0.00 | 0.05 | 0.05 | 34 | 1009.8 |
| 20260502211510 | 19 | 314 | 4.8 | 14.5 | 0.00 | 0.05 | 0.05 | 34 | 1009.8 |
| 20260502211010 | 18 | 266 | 4.8 | 14.5 | 0.00 | 0.05 | 0.05 | 35 | 1009.9 |
| 20260502210511 | 18 | 262 | 4.8 | 14.5 | 0.00 | 0.05 | 0.05 | 35 | 1010.0 |
| 20260502210011 | 18 | 261 | 4.8 | 14.5 | 0.00 | 0.05 | 0.05 | 33 | 1010.0 |
| 20260502205512 | 18 | 246 | 3.2 | 11.3 | 0.00 | 0.05 | 0.05 | 34 | 1010.2 |
| 20260502205011 | 18 | 236 | 4.8 | 16.1 | 0.00 | 0.05 | 0.05 | 34 | 1010.4 |
| 20260502204510 | 18 | 250 | 4.8 | 16.1 | 0.00 | 0.05 | 0.05 | 34 | 1010.4 |
| 20260502204014 | 18 | 219 | 4.8 | 14.5 | 0.00 | 0.05 | 0.05 | 33 | 1010.6 |
| 20260502204010 | 18 | 271 | 3.2 | 9.7 | 0.00 | 0.05 | 0.05 | 35 | 1010.5 |
| 20260502203008 | 18 | 253 | 6.4 | 20.9 | 0.00 | 0.05 | 0.05 | 34 | 1010.8 |
| 20260502202513 | 18 | 257 | 4.8 | 14.5 | 0.00 | 0.05 | 0.05 | 34 | 1010.9 |
| 20260502202509 | 18 | 279 | 6.4 | 20.9 | 0.00 | 0.05 | 0.05 | 34 | 1010.9 |
| 20260502201512 | 18 | 244 | 3.2 | 9.7 | 0.00 | 0.05 | 0.05 | 35 | 1011.3 |
| 20260502201508 | 18 | 207 | 3.2 | 12.9 | 0.00 | 0.05 | 0.05 | 35 | 1011.1 |
| 20260502200506 | 17 | 226 | 4.8 | 12.9 | 0.00 | 0.05 | 0.05 | 35 | 1011.4 |
| 20260502200004 | 17 | 264 | 4.8 | 14.5 | 0.00 | 0.05 | 0.05 | 35 | 1011.4 |
| 20260502195509 | 17 | 243 | 6.4 | 14.5 | 0.00 | 0.05 | 0.05 | 34 | 1011.6 |
| 20260502195504 | 17 | 236 | 4.8 | 14.5 | 0.00 | 0.05 | 0.05 | 36 | 1011.5 |
| 20260502194507 | 17 | 273 | 3.2 | 11.3 | 0.00 | 0.05 | 0.05 | 35 | 1011.8 |
| 20260502194502 | 17 | 261 | 4.8 | 14.5 | 0.00 | 0.05 | 0.05 | 36 | 1011.7 |
| 20260502193502 | 17 | 205 | 3.2 | 11.3 | 0.00 | 0.05 | 0.05 | 36 | 1011.9 |
| 20260502193002 | 16 | 251 | 3.2 | 16.1 | 0.00 | 0.05 | 0.05 | 36 | 1012.1 |
| 20260502192503 | 16 | 270 | 4.8 | 16.1 | 0.00 | 0.05 | 0.05 | 36 | 1012.1 |
| 20260502192003 | 16 | 305 | 4.8 | 14.5 | 0.00 | 0.05 | 0.05 | 35 | 1012.2 |
| 20260502191502 | 16 | 198 | 3.2 | 12.9 | 0.00 | 0.05 | 0.05 | 35 | 1012.3 |
| 20260502191000 | 16 | 253 | 1.6 | 12.9 | 0.00 | 0.05 | 0.05 | 35 | 1012.4 |
| 20260502190500 | 16 | 218 | 1.6 | 6.4 | 0.00 | 0.05 | 0.05 | 35 | 1012.4 |
| 20260502190000 | 16 | 212 | 3.2 | 8.0 | 0.00 | 0.05 | 0.05 | 37 | 1012.5 |
| 20260502185500 | 16 | 271 | 3.2 | 9.7 | 0.05 | 0.05 | 0.05 | 35 | 1012.6 |
| 20260502185000 | 16 | 258 | 4.8 | 14.5 | 0.05 | 0.05 | 0.05 | 35 | 1012.8 |
| 20260502184501 | 16 | 264 | 4.8 | 14.5 | 0.05 | 0.05 | 0.05 | 35 | 1012.8 |
| 20260502184000 | 16 | 231 | 3.2 | 9.7 | 0.05 | 0.05 | 0.05 | 37 | 1013.0 |
| 20260502183504 | 15 | 246 | 4.8 | 11.3 | 0.05 | 0.05 | 0.05 | 36 | 1013.2 |
| 20260502183500 | 15 | 288 | 3.2 | 11.3 | 0.05 | 0.05 | 0.05 | 37 | 1013.1 |
| 20260502182504 | 15 | 263 | 3.2 | 9.7 | 0.05 | 0.05 | 0.05 | 37 | 1013.3 |
| 20260502182500 | 15 | 218 | 3.2 | 9.7 | 0.05 | 0.05 | 0.05 | 36 | 1013.3 |
| 20260502181458 | 15 | 266 | 3.2 | 14.5 | 0.05 | 0.05 | 0.05 | 37 | 1013.4 |
| 20260502180958 | 15 | 226 | 3.2 | 14.5 | 0.05 | 0.05 | 0.05 | 38 | 1013.5 |
| 20260502180458 | 15 | 253 | 3.2 | 16.1 | 0.05 | 0.05 | 0.05 | 38 | 1013.6 |
| 20260502170456 | 13 | 228 | 3.2 | 11.3 | 0.00 | 0.03 | 0.00 | 37 | 1014.7 |
| 20260502163954 | 13 | 259 | 4.8 | 12.9 | 0.00 | 0.03 | 0.00 | 39 | 1015.0 |
| 20260502163453 | 13 | 245 | 3.2 | 12.9 | 0.00 | 0.03 | 0.00 | 39 | 1015.1 |
| 20260502162954 | 13 | 230 | 3.2 | 9.7 | 0.00 | 0.03 | 0.00 | 39 | 1015.2 |
| 20260502162454 | 13 | 268 | 3.2 | 9.7 | 0.00 | 0.03 | 0.00 | 40 | 1015.2 |
| 20260502161954 | 13 | 193 | 3.2 | 9.7 | 0.00 | 0.03 | 0.00 | 39 | 1015.3 |
| 20260502161454 | 13 | 244 | 3.2 | 12.9 | 0.00 | 0.03 | 0.00 | 40 | 1015.3 |
| 20260502160954 | 12 | 261 | 3.2 | 12.9 | 0.00 | 0.03 | 0.00 | 43 | 1015.3 |
| 20260502160454 | 12 | 269 | 4.8 | 17.7 | 0.00 | 0.03 | 0.00 | 42 | 1015.4 |
| 20260502151452 | 12 | 261 | 4.8 | 12.9 | 0.00 | 0.03 | 0.00 | 43 | 1015.9 |
| 20260502150956 | 12 | 265 | 3.2 | 11.3 | 0.00 | 0.03 | 0.00 | 45 | 1015.9 |
| 20260502150952 | 12 | 260 | 3.2 | 12.9 | 0.00 | 0.03 | 0.00 | 43 | 1015.9 |
| 20260502150557 | 11 | 269 | 3.2 | 8.0 | 0.00 | 0.03 | 0.00 | 46 | 1015.9 |
| 20260502130443 | 6 | 264 | 1.6 | 4.8 | 0.00 | 0.03 | 0.00 | 69 | 1016.5 |
| 20260502122937 | 4 | 264 | 0.0 | 0.0 | 0.00 | 0.03 | 0.00 | 71 | 1016.4 |
| 20260502122438 | 4 | 265 | 0.0 | 1.6 | 0.00 | 0.03 | 0.00 | 72 | 1016.3 |
| 20260502121938 | 4 | 264 | 0.0 | 1.6 | 0.00 | 0.03 | 0.00 | 72 | 1016.3 |
| 20260502121438 | 3 | 264 | 0.0 | 0.0 | 0.00 | 0.03 | 0.00 | 72 | 1016.4 |
| 20260502120939 | 3 | 264 | 0.0 | 0.0 | 0.00 | 0.03 | 0.00 | 72 | 1016.4 |
| 20260502120437 | 3 | 264 | 0.0 | 0.0 | 0.00 | 0.03 | 0.00 | 73 | 1016.3 |
| 20260502115436 | 3 | 264 | 0.0 | 0.0 | 0.00 | 0.03 | 0.00 | 73 | 1016.3 |
| 20260502114935 | 3 | 264 | 0.0 | 0.0 | 0.00 | 0.03 | 0.00 | 74 | 1016.2 |
| 20260502114435 | 2 | 264 | 0.0 | 0.0 | 0.00 | 0.03 | 0.00 | 74 | 1016.2 |
| 20260502113935 | 2 | 264 | 0.0 | 0.0 | 0.00 | 0.03 | 0.00 | 74 | 1016.3 |
| 20260502113440 | 2 | 264 | 0.0 | 0.0 | 0.00 | 0.03 | 0.00 | 74 | 1016.2 |
| 20260502113435 | 2 | 264 | 0.0 | 0.0 | 0.00 | 0.03 | 0.00 | 74 | 1016.2 |
| 20260502112435 | 2 | 265 | 0.0 | 0.0 | 0.00 | 0.03 | 0.00 | 74 | 1016.1 |
| 20260502111939 | 2 | 264 | 0.0 | 1.6 | 0.00 | 0.03 | 0.00 | 73 | 1016.1 |
| 20260502111935 | 2 | 265 | 0.0 | 1.6 | 0.00 | 0.03 | 0.00 | 74 | 1016.2 |
| 20260502111541 | 2 | 265 | 0.0 | 1.6 | 0.00 | 0.03 | 0.00 | 73 | 1016.1 |
| 20260502111040 | 2 | 264 | 0.0 | 1.6 | 0.00 | 0.03 | 0.00 | 73 | 1016.1 |
| 20260502105934 | 2 | 264 | 0.0 | 0.0 | 0.00 | 0.03 | 0.00 | 72 | 1016.0 |
| 20260502105435 | 2 | 264 | 0.0 | 0.0 | 0.00 | 0.03 | 0.00 | 72 | 1016.0 |
| 20260502104935 | 2 | 265 | 0.0 | 0.0 | 0.00 | 0.03 | 0.00 | 72 | 1016.1 |
| 20260502104435 | 3 | 265 | 0.0 | 0.0 | 0.00 | 0.03 | 0.00 | 72 | 1016.0 |
| 20260502103938 | 3 | 264 | 0.0 | 0.0 | 0.00 | 0.03 | 0.00 | 71 | 1016.1 |
| 20260502103934 | 3 | 264 | 0.0 | 0.0 | 0.00 | 0.03 | 0.00 | 71 | 1016.1 |
| 20260502102935 | 3 | 264 | 0.0 | 0.0 | 0.00 | 0.03 | 0.00 | 71 | 1016.1 |
| 20260502102435 | 3 | 265 | 0.0 | 0.0 | 0.00 | 0.03 | 0.00 | 70 | 1016.0 |
| 20260502101935 | 3 | 264 | 0.0 | 0.0 | 0.00 | 0.03 | 0.00 | 70 | 1016.1 |
| 20260502101435 | 3 | 265 | 0.0 | 0.0 | 0.00 | 0.03 | 0.00 | 70 | 1016.1 |
| 20260502100931 | 3 | 265 | 0.0 | 0.0 | 0.00 | 0.03 | 0.00 | 70 | 1016.0 |
| 20260502100432 | 3 | 264 | 0.0 | 1.6 | 0.00 | 0.03 | 0.00 | 69 | 1016.0 |
| 20260502090921 | 5 | 264 | 0.0 | 0.0 | 0.00 | 0.03 | 0.00 | 62 | 1015.9 |
| 20260502090421 | 5 | 264 | 0.0 | 0.0 | 0.00 | 0.03 | 0.00 | 61 | 1015.9 |
| 20260502071405 | 6 | 264 | 1.6 | 4.8 | 0.00 | 0.03 | 0.00 | 59 | 1016.2 |
| 20260502070905 | 6 | 265 | 1.6 | 4.8 | 0.00 | 0.03 | 0.00 | 59 | 1016.2 |
| 20260502070405 | 5 | 265 | 0.0 | 4.8 | 0.00 | 0.03 | 0.00 | 59 | 1016.3 |
| 20260502065906 | 5 | 264 | 0.0 | 3.2 | 0.00 | 0.03 | 0.00 | 60 | 1016.2 |
| 20260502065405 | 6 | 265 | 0.0 | 1.6 | 0.00 | 0.03 | 0.00 | 60 | 1016.3 |
| 20260502064905 | 6 | 264 | 0.0 | 1.6 | 0.00 | 0.03 | 0.00 | 60 | 1016.3 |
| 20260502064406 | 6 | 265 | 1.6 | 3.2 | 0.00 | 0.03 | 0.00 | 60 | 1016.3 |
| 20260502063905 | 6 | 265 | 1.6 | 9.7 | 0.00 | 0.03 | 0.00 | 59 | 1016.4 |
| 20260502063403 | 6 | 264 | 1.6 | 9.7 | 0.00 | 0.03 | 0.00 | 59 | 1016.4 |
| 20260502062907 | 5 | 264 | 0.0 | 1.6 | 0.00 | 0.03 | 0.00 | 61 | 1016.4 |
| 20260502062903 | 5 | 265 | 0.0 | 4.8 | 0.00 | 0.03 | 0.00 | 60 | 1016.4 |
| 20260502061908 | 5 | 264 | 0.0 | 1.6 | 0.00 | 0.03 | 0.00 | 61 | 1016.3 |
| 20260502061903 | 5 | 264 | 0.0 | 1.6 | 0.00 | 0.03 | 0.00 | 62 | 1016.3 |
| 20260502061510 | 6 | 264 | 0.0 | 0.0 | 0.00 | 0.03 | 0.00 | 61 | 1016.4 |
| 20260502060407 | 6 | 264 | 0.0 | 0.0 | 0.00 | 0.03 | 0.00 | 60 | 1016.4 |
| 20260502060403 | 6 | 264 | 0.0 | 0.0 | 0.00 | 0.03 | 0.00 | 61 | 1016.3 |
| 20260502055405 | 6 | 264 | 0.0 | 1.6 | 0.00 | 0.03 | 0.00 | 59 | 1016.4 |
| 20260502054904 | 6 | 264 | 0.0 | 1.6 | 0.00 | 0.03 | 0.00 | 58 | 1016.4 |
| 20260502054401 | 6 | 264 | 0.0 | 1.6 | 0.00 | 0.03 | 0.00 | 58 | 1016.4 |
| 20260502053901 | 6 | 265 | 0.0 | 1.6 | 0.00 | 0.03 | 0.00 | 58 | 1016.4 |
| 20260502053401 | 6 | 264 | 0.0 | 1.6 | 0.00 | 0.03 | 0.00 | 58 | 1016.5 |
| 20260502052906 | 6 | 264 | 0.0 | 1.6 | 0.00 | 0.03 | 0.00 | 57 | 1016.5 |
| 20260502052902 | 6 | 265 | 0.0 | 1.6 | 0.00 | 0.03 | 0.00 | 57 | 1016.4 |
| 20260502051901 | 6 | 264 | 0.0 | 1.6 | 0.00 | 0.03 | 0.00 | 56 | 1016.4 |
| 20260502051401 | 6 | 264 | 0.0 | 1.6 | 0.00 | 0.03 | 0.00 | 55 | 1016.4 |
| 20260502050901 | 6 | 264 | 0.0 | 0.0 | 0.00 | 0.03 | 0.00 | 54 | 1016.4 |
| 20260502050359 | 6 | 265 | 0.0 | 0.0 | 0.00 | 0.03 | 0.00 | 54 | 1016.3 |
| 20260502045858 | 6 | 265 | 0.0 | 0.0 | 0.00 | 0.03 | 0.03 | 54 | 1016.4 |
| 20260502045359 | 6 | 265 | 0.0 | 0.0 | 0.00 | 0.03 | 0.03 | 54 | 1016.3 |
| 20260502044859 | 6 | 265 | 0.0 | 0.0 | 0.00 | 0.03 | 0.03 | 53 | 1016.3 |
| 20260502044359 | 6 | 264 | 0.0 | 1.6 | 0.00 | 0.03 | 0.03 | 53 | 1016.3 |
| 20260502043906 | 7 | 265 | 0.0 | 1.6 | 0.00 | 0.03 | 0.03 | 52 | 1016.3 |
| 20260502043902 | 7 | 265 | 0.0 | 1.6 | 0.00 | 0.03 | 0.03 | 52 | 1016.3 |
| 20260502042856 | 7 | 264 | 0.0 | 1.6 | 0.00 | 0.03 | 0.03 | 52 | 1016.4 |
| 20260502042356 | 7 | 264 | 0.0 | 0.0 | 0.00 | 0.03 | 0.03 | 51 | 1016.4 |
| 20260502041856 | 7 | 264 | 0.0 | 0.0 | 0.00 | 0.03 | 0.03 | 51 | 1016.4 |
| 20260502041357 | 7 | 264 | 0.0 | 0.0 | 0.00 | 0.03 | 0.03 | 51 | 1016.3 |
| 20260502040858 | 7 | 265 | 0.0 | 0.0 | 0.00 | 0.03 | 0.03 | 50 | 1016.4 |
| 20260502040357 | 7 | 264 | 0.0 | 0.0 | 0.00 | 0.03 | 0.03 | 50 | 1016.3 |
| 20260502035857 | 7 | 265 | 0.0 | 0.0 | 0.00 | 0.03 | 0.03 | 50 | 1016.3 |
| 20260502035358 | 7 | 264 | 0.0 | 1.6 | 0.00 | 0.03 | 0.03 | 49 | 1016.4 |
| 20260502034855 | 7 | 265 | 0.0 | 1.6 | 0.00 | 0.03 | 0.03 | 49 | 1016.3 |
| 20260502034355 | 7 | 265 | 0.0 | 1.6 | 0.00 | 0.03 | 0.03 | 49 | 1016.4 |
| 20260502033854 | 7 | 265 | 0.0 | 1.6 | 0.00 | 0.03 | 0.03 | 49 | 1016.4 |
| 20260502033354 | 7 | 264 | 0.0 | 0.0 | 0.00 | 0.03 | 0.03 | 48 | 1016.4 |
| 20260502032855 | 7 | 264 | 0.0 | 0.0 | 0.00 | 0.03 | 0.03 | 48 | 1016.4 |
| 20260502032354 | 7 | 264 | 0.0 | 0.0 | 0.00 | 0.03 | 0.03 | 47 | 1016.4 |
| 20260502031855 | 8 | 264 | 0.0 | 0.0 | 0.00 | 0.03 | 0.03 | 47 | 1016.4 |
| 20260502031355 | 8 | 264 | 0.0 | 0.0 | 0.00 | 0.03 | 0.03 | 47 | 1016.4 |
| 20260502030855 | 8 | 264 | 0.0 | 1.6 | 0.00 | 0.03 | 0.03 | 46 | 1016.5 |
| 20260502030359 | 8 | 264 | 0.0 | 0.0 | 0.00 | 0.03 | 0.03 | 45 | 1016.4 |
| 20260502030354 | 8 | 265 | 0.0 | 1.6 | 0.00 | 0.03 | 0.03 | 46 | 1016.4 |
| 20260502025854 | 8 | 264 | 0.0 | 1.6 | 0.00 | 0.03 | 0.03 | 45 | 1016.4 |
| 20260502024859 | 8 | 264 | 0.0 | 1.6 | 0.00 | 0.03 | 0.03 | 44 | 1016.4 |
| 20260502024854 | 8 | 264 | 0.0 | 1.6 | 0.00 | 0.03 | 0.03 | 44 | 1016.4 |
| 20260502023855 | 8 | 264 | 0.0 | 1.6 | 0.00 | 0.03 | 0.03 | 44 | 1016.4 |
| 20260502023354 | 8 | 264 | 0.0 | 1.6 | 0.00 | 0.03 | 0.03 | 43 | 1016.4 |
| 20260502022854 | 8 | 264 | 0.0 | 1.6 | 0.00 | 0.03 | 0.03 | 43 | 1016.4 |
| 20260502022355 | 8 | 264 | 0.0 | 0.0 | 0.00 | 0.03 | 0.03 | 43 | 1016.3 |
| 20260502021855 | 8 | 264 | 0.0 | 1.6 | 0.00 | 0.03 | 0.03 | 43 | 1016.3 |
| 20260502021354 | 8 | 264 | 0.0 | 1.6 | 0.00 | 0.03 | 0.03 | 43 | 1016.3 |
| 20260502020854 | 8 | 264 | 0.0 | 0.0 | 0.00 | 0.03 | 0.03 | 42 | 1016.2 |
| 20260502020355 | 8 | 264 | 0.0 | 0.0 | 0.00 | 0.03 | 0.03 | 42 | 1016.2 |
| 20260502015855 | 8 | 264 | 0.0 | 0.0 | 0.00 | 0.03 | 0.03 | 42 | 1016.1 |
| 20260502015354 | 9 | 264 | 0.0 | 0.0 | 0.00 | 0.03 | 0.03 | 41 | 1016.1 |
| 20260502014854 | 9 | 264 | 0.0 | 0.0 | 0.00 | 0.03 | 0.03 | 41 | 1016.0 |
| 20260502014355 | 9 | 264 | 0.0 | 0.0 | 0.00 | 0.03 | 0.03 | 41 | 1016.0 |
| 20260502013855 | 10 | 264 | 0.0 | 0.0 | 0.00 | 0.03 | 0.03 | 41 | 1015.9 |
| 20260502013355 | 10 | 264 | 0.0 | 0.0 | 0.00 | 0.03 | 0.03 | 40 | 1015.9 |
| 20260502012854 | 10 | 265 | 0.0 | 0.0 | 0.00 | 0.03 | 0.03 | 39 | 1015.9 |
| 20260502012355 | 10 | 264 | 0.0 | 4.8 | 0.00 | 0.03 | 0.03 | 38 | 1015.9 |
| 20260502011855 | 10 | 265 | 0.0 | 4.8 | 0.00 | 0.03 | 0.03 | 38 | 1015.9 |
| 20260502011354 | 10 | 264 | 0.0 | 3.2 | 0.00 | 0.03 | 0.03 | 38 | 1015.8 |
| 20260502010855 | 10 | 264 | 0.0 | 6.4 | 0.00 | 0.03 | 0.03 | 37 | 1015.8 |
| 20260502010355 | 11 | 264 | 0.0 | 6.4 | 0.00 | 0.03 | 0.03 | 36 | 1015.7 |
| 20260502005854 | 11 | 264 | 0.0 | 4.8 | 0.00 | 0.03 | 0.03 | 38 | 1015.8 |
| 20260502005355 | 11 | 264 | 0.0 | 6.4 | 0.00 | 0.03 | 0.03 | 36 | 1015.8 |
| 20260502004855 | 11 | 265 | 0.0 | 6.4 | 0.00 | 0.03 | 0.03 | 36 | 1015.8 |
| 20260502004355 | 11 | 265 | 1.6 | 9.7 | 0.00 | 0.03 | 0.03 | 36 | 1015.7 |
| 20260502003859 | 11 | 255 | 0.0 | 6.4 | 0.00 | 0.03 | 0.03 | 35 | 1015.8 |
| 20260502003855 | 11 | 264 | 1.6 | 9.7 | 0.00 | 0.03 | 0.03 | 35 | 1015.7 |
| 20260502003459 | 11 | 337 | 0.0 | 4.8 | 0.00 | 0.03 | 0.03 | 34 | 1015.8 |
| 20260502002358 | 12 | 337 | 1.6 | 8.0 | 0.00 | 0.03 | 0.03 | 33 | 1015.7 |
| 20260502002354 | 12 | 337 | 0.0 | 4.8 | 0.00 | 0.03 | 0.03 | 33 | 1015.8 |
| 20260502001355 | 12 | 337 | 1.6 | 8.0 | 0.00 | 0.03 | 0.03 | 33 | 1015.7 |
| 20260502000854 | 12 | 247 | 1.6 | 6.4 | 0.00 | 0.05 | 0.03 | 34 | 1015.6 |
| 20260502000354 | 12 | 269 | 0.0 | 4.8 | 0.00 | 0.05 | 0.03 | 34 | 1015.6 |
| 20260501235854 | 11 | 267 | 0.0 | 3.2 | 0.00 | 0.05 | 0.03 | 36 | 1015.6 |
| 20260501235352 | 11 | 267 | 0.0 | 3.2 | 0.00 | 0.05 | 0.03 | 36 | 1015.7 |
| 20260501234851 | 11 | 267 | 0.0 | 1.6 | 0.00 | 0.05 | 0.03 | 37 | 1015.7 |
| 20260501234350 | 11 | 267 | 0.0 | 1.6 | 0.00 | 0.05 | 0.03 | 38 | 1015.7 |
| 20260501233850 | 10 | 267 | 0.0 | 3.2 | 0.00 | 0.05 | 0.03 | 38 | 1015.6 |
| 20260501233351 | 10 | 267 | 0.0 | 3.2 | 0.00 | 0.05 | 0.03 | 36 | 1015.6 |
| 20260501232851 | 10 | 267 | 0.0 | 3.2 | 0.00 | 0.05 | 0.03 | 38 | 1015.7 |
| 20260501232350 | 11 | 267 | 0.0 | 3.2 | 0.00 | 0.05 | 0.03 | 36 | 1015.7 |
| 20260501231851 | 11 | 267 | 0.0 | 4.8 | 0.00 | 0.05 | 0.03 | 37 | 1015.7 |
| 20260501231351 | 11 | 267 | 0.0 | 4.8 | 0.00 | 0.05 | 0.03 | 36 | 1015.6 |
| 20260501230850 | 11 | 267 | 0.0 | 4.8 | 0.00 | 0.05 | 0.03 | 36 | 1015.7 |
| 20260501230350 | 11 | 267 | 0.0 | 4.8 | 0.00 | 0.05 | 0.03 | 35 | 1015.7 |
| 20260501225850 | 11 | 267 | 0.0 | 4.8 | 0.00 | 0.05 | 0.03 | 37 | 1015.8 |
| 20260501225350 | 11 | 267 | 0.0 | 6.4 | 0.00 | 0.05 | 0.03 | 37 | 1015.7 |
| 20260501224850 | 11 | 267 | 0.0 | 6.4 | 0.00 | 0.05 | 0.03 | 35 | 1015.8 |
| 20260501224351 | 11 | 267 | 0.0 | 4.8 | 0.00 | 0.05 | 0.03 | 35 | 1015.8 |
| 20260501223850 | 11 | 267 | 1.6 | 12.9 | 0.00 | 0.05 | 0.03 | 35 | 1015.8 |